EW8839 Weather Reports


time (UTC)temp
C
wind
direction
speed
KPH
gust
KPH
rain 1hr
cm
rain 24hr
cm
rain mn
cm
humidity
%
barometer
mb
20260503173600 12 221 6.4 22.5 0.00 0.00 0.00 44 1011.8
20260503173014 11 225 6.4 20.9 0.00 0.00 0.00 45 1012.0
20260503172529 12 233 4.8 17.7 0.00 0.00 0.00 44 1011.9
20260503172045 11 252 1.6 24.1 0.00 0.00 0.00 46 1011.9
20260503171614 11 227 6.4 24.1 0.00 0.00 0.00 45 1012.0
20260503171001 12 231 6.4 14.5 0.00 0.00 0.00 45 1012.0
20260503170502 11 252 1.6 12.9 0.00 0.00 0.00 44 1011.9
20260503150538 10 285 0.0 11.3 0.00 0.00 0.00 54 1012.4
20260503131003 8 253 4.8 12.9 0.00 0.00 0.00 60 1012.4
20260503130519 8 268 1.6 12.9 0.00 0.00 0.00 61 1012.4
20260503110534 7 271 1.6 14.5 0.00 0.00 0.00 64 1011.5
20260503081503 6 277 0.0 0.0 0.00 0.00 0.00 72 1009.6
20260503081021 6 278 0.0 0.0 0.00 0.00 0.00 72 1009.6
20260503080537 6 277 0.0 0.0 0.00 0.00 0.00 72 1009.5
20260503072525 7 277 0.0 0.0 0.00 0.00 0.00 67 1009.2
20260503072042 7 277 0.0 0.0 0.00 0.00 0.00 67 1009.2
20260503071609 7 278 0.0 0.0 0.00 0.00 0.00 66 1009.1
20260503071013 7 278 0.0 3.2 0.00 0.00 0.00 66 1009.1
20260503070526 7 278 0.0 3.2 0.00 0.00 0.00 66 1009.2
20260503055024 10 298 0.0 3.2 0.00 0.00 0.00 59 1009.7
20260503054554 10 297 0.0 0.0 0.00 0.00 0.00 59 1009.7
20260503054102 10 297 0.0 1.6 0.00 0.00 0.00 58 1009.7
20260503053512 10 298 0.0 3.2 0.00 0.00 0.00 58 1009.7
20260503053035 10 298 0.0 3.2 0.00 0.00 0.00 57 1009.8
20260503052545 10 297 0.0 3.2 0.00 0.00 0.00 57 1009.8
20260503052047 10 275 0.0 0.0 0.00 0.00 0.00 57 1009.9
20260503051550 10 301 0.0 6.4 0.00 0.00 0.00 56 1009.9
20260503051002 10 286 0.0 6.4 0.00 0.00 0.00 56 1010.0
20260503050522 10 297 0.0 1.6 0.00 0.00 0.00 55 1009.9
20260503050041 10 289 0.0 1.6 0.00 0.00 0.00 55 1010.0
20260503045538 10 270 0.0 3.2 0.00 0.00 0.00 54 1010.0
20260503045055 10 250 0.0 4.8 0.00 0.00 0.00 54 1010.0
20260503044558 10 256 0.0 4.8 0.00 0.00 0.00 54 1010.1
20260503044009 10 286 0.0 1.6 0.00 0.00 0.00 53 1010.2
20260503043525 10 296 0.0 1.6 0.00 0.00 0.00 53 1010.2
20260503043047 10 285 0.0 1.6 0.00 0.00 0.00 53 1010.2
20260503042602 10 298 0.0 3.2 0.00 0.00 0.00 53 1010.1
20260503042012 10 266 0.0 4.8 0.00 0.00 0.00 52 1010.2
20260503041525 11 280 0.0 4.8 0.00 0.00 0.00 52 1010.2
20260503041041 11 285 0.0 4.8 0.00 0.00 0.00 52 1010.4
20260503040558 11 286 0.0 3.2 0.00 0.00 0.00 52 1010.4
20260503040100 11 286 0.0 6.4 0.00 0.00 0.00 52 1010.3
20260503035603 11 265 1.6 6.4 0.00 0.00 0.00 52 1010.2
20260503035016 11 269 0.0 4.8 0.00 0.00 0.00 52 1010.2
20260503034532 11 292 0.0 4.8 0.00 0.00 0.00 51 1010.2
20260503034047 11 281 0.0 4.8 0.00 0.00 0.00 52 1010.1
20260503033551 11 331 0.0 4.8 0.00 0.00 0.00 51 1010.2
20260503033053 11 238 0.0 4.8 0.00 0.00 0.00 51 1010.2
20260503032600 11 290 0.0 9.7 0.00 0.00 0.00 51 1010.1
20260503032013 11 331 0.0 1.6 0.00 0.00 0.00 51 1010.2
20260503031529 11 328 0.0 3.2 0.00 0.00 0.00 50 1010.2
20260503031042 11 250 0.0 6.4 0.00 0.00 0.00 49 1010.1
20260503030543 11 258 1.6 6.4 0.00 0.00 0.00 49 1010.1
20260503030046 11 302 0.0 6.4 0.00 0.00 0.00 49 1010.1
20260503025548 11 308 0.0 6.4 0.00 0.00 0.00 50 1010.2
20260503025004 11 268 0.0 4.8 0.00 0.00 0.00 49 1010.1
20260503024519 11 265 0.0 6.4 0.00 0.00 0.00 50 1010.1
20260503024036 11 275 0.0 6.4 0.00 0.00 0.00 50 1010.2
20260503023552 11 308 0.0 6.4 0.00 0.00 0.00 50 1010.2
20260503023105 11 256 0.0 3.2 0.00 0.00 0.00 50 1010.3
20260503022556 12 310 0.0 3.2 0.00 0.00 0.00 50 1010.2
20260503022015 12 315 0.0 4.8 0.00 0.00 0.00 49 1010.2
20260503021528 12 251 0.0 6.4 0.00 0.00 0.00 50 1010.2
20260503021042 12 291 0.0 6.4 0.00 0.00 0.00 49 1010.3
20260503020559 12 240 0.0 0.0 0.00 0.00 0.00 48 1010.3
20260503020013 12 290 0.0 3.2 0.00 0.00 0.00 48 1010.3
20260503015528 12 274 0.0 3.2 0.00 0.00 0.00 49 1010.3
20260503015045 12 275 0.0 3.2 0.00 0.00 0.00 48 1010.2
20260503014606 12 267 0.0 4.8 0.00 0.00 0.00 48 1010.1
20260503014001 12 258 0.0 6.4 0.00 0.00 0.00 48 1010.2
20260503013517 12 259 0.0 6.4 0.00 0.00 0.00 48 1010.2
20260503013031 12 270 0.0 6.4 0.00 0.00 0.00 48 1010.1
20260503012547 12 302 0.0 6.4 0.00 0.00 0.00 48 1010.1
20260503012002 12 286 0.0 1.6 0.00 0.00 0.00 48 1010.1
20260503011516 12 288 0.0 3.2 0.00 0.00 0.00 47 1010.0
20260503011033 12 288 0.0 3.2 0.00 0.00 0.00 47 1010.0
20260503010550 12 298 0.0 4.8 0.00 0.00 0.00 47 1009.9
20260503010005 12 288 0.0 3.2 0.00 0.00 0.00 48 1009.9
20260503005520 12 337 0.0 0.0 0.00 0.00 0.00 47 1009.9
20260503005022 12 279 0.0 0.0 0.00 0.00 0.00 47 1009.8
20260503004538 12 291 0.0 0.0 0.00 0.00 0.00 47 1009.7
20260503004054 12 282 0.0 0.0 0.00 0.00 0.00 47 1009.6
20260503003507 12 284 0.0 0.0 0.00 0.00 0.00 47 1009.4
20260503003024 12 284 0.0 0.0 0.00 0.00 0.00 46 1009.4
20260503002539 13 317 0.0 0.0 0.00 0.00 0.00 47 1009.4
20260503002058 13 285 0.0 1.6 0.00 0.00 0.00 46 1009.4
20260503001558 13 283 0.0 1.6 0.00 0.00 0.00 46 1009.3
20260503001100 13 240 0.0 0.0 0.00 0.00 0.00 46 1009.4
20260503000515 13 271 0.0 0.0 0.00 0.00 0.00 47 1009.3
20260503000043 13 270 0.0 0.0 0.00 0.00 0.00 47 1009.2
20260502235546 13 239 0.0 0.0 0.00 0.00 0.00 46 1009.3
20260502235001 13 264 0.0 0.0 0.00 0.00 0.00 47 1009.3
20260502234518 13 226 0.0 0.0 0.00 0.00 0.00 47 1009.2
20260502234035 13 225 0.0 0.0 0.00 0.00 0.00 48 1009.2
20260502233552 13 225 0.0 0.0 0.00 0.00 0.00 47 1009.0
20260502233054 13 225 0.0 0.0 0.00 0.00 0.00 47 1009.0
20260502232556 14 224 0.0 1.6 0.00 0.00 0.00 47 1009.0
20260502232010 14 312 0.0 0.0 0.00 0.00 0.00 46 1009.1
20260502231533 14 311 0.0 0.0 0.00 0.00 0.00 47 1009.2
20260502231047 14 310 0.0 0.0 0.00 0.00 0.00 45 1009.1
20260502230601 14 294 0.0 0.0 0.00 0.00 0.00 45 1009.2
20260502230013 14 294 0.0 0.0 0.00 0.00 0.00 47 1009.2
20260502225529 14 294 0.0 0.0 0.00 0.00 0.00 46 1009.2
20260502225045 14 294 0.0 0.0 0.00 0.00 0.00 45 1009.2
20260502224549 14 255 0.0 0.0 0.00 0.00 0.00 45 1009.1
20260502224050 14 258 0.0 0.0 0.00 0.00 0.00 48 1009.1
20260502223504 15 258 0.0 0.0 0.00 0.00 0.00 45 1009.1
20260502223028 15 263 0.0 0.0 0.00 0.00 0.00 45 1009.0
20260502222539 15 258 0.0 0.0 0.00 0.00 0.00 44 1009.0
20260502222054 15 271 0.0 6.4 0.00 0.00 0.00 43 1009.0
20260502221509 15 296 0.0 6.4 0.00 0.00 0.00 45 1008.9
20260502221024 15 279 0.0 1.6 0.00 0.00 0.00 44 1009.0
20260502220542 15 283 0.0 4.8 0.00 0.00 0.00 44 1008.9
20260502220109 15 250 0.0 6.4 0.00 0.00 0.00 45 1009.0
20260502215601 15 259 0.0 8.0 0.00 0.00 0.00 44 1009.0
20260502215103 15 242 1.6 8.0 0.00 0.00 0.00 43 1008.9
20260502214517 15 231 1.6 8.0 0.00 0.00 0.00 44 1008.8
20260502214032 15 272 0.0 8.0 0.00 0.00 0.00 44 1008.9
20260502213553 15 309 0.0 8.0 0.00 0.00 0.00 45 1008.9
20260502213003 15 235 0.0 6.4 0.00 0.00 0.00 45 1008.9
20260502212521 15 4 0.0 6.4 0.00 0.00 0.00 44 1009.0
20260502212038 15 248 0.0 6.4 0.00 0.00 0.00 44 1008.9
20260502211541 15 251 1.6 4.8 0.00 0.00 0.00 44 1008.8
20260502211057 15 339 0.0 6.4 0.00 0.00 0.00 46 1008.8
20260502210600 15 359 0.0 6.4 0.00 0.00 0.00 43 1008.7
20260502210133 15 20 0.0 4.8 0.00 0.00 0.00 45 1008.6
20260502205516 16 295 0.0 8.0 0.00 0.00 0.00 44 1008.6
20260502205030 16 268 1.6 8.0 0.00 0.00 0.00 44 1008.5
20260502204549 15 335 0.0 6.4 0.00 0.00 0.00 43 1008.5
20260502204002 15 298 0.0 6.4 0.00 0.00 0.00 45 1008.5
20260502203517 15 288 1.6 6.4 0.00 0.00 0.00 43 1008.5
20260502203034 15 346 1.6 8.0 0.00 0.00 0.00 42 1008.5
20260502202551 15 272 1.6 8.0 0.00 0.00 0.00 41 1008.6
20260502202057 16 342 0.0 6.4 0.00 0.00 0.00 44 1008.6
20260502201506 16 341 0.0 14.5 0.00 0.00 0.00 43 1008.7
20260502201023 16 269 1.6 14.5 0.00 0.00 0.00 43 1008.7
20260502200541 16 350 0.0 9.7 0.00 0.00 0.00 43 1008.8
20260502200124 16 324 3.2 9.7 0.00 0.00 0.00 41 1008.9
20260502195511 15 258 0.0 6.4 0.00 0.00 0.00 43 1008.9
20260502195027 16 244 1.6 6.4 0.00 0.00 0.00 46 1009.0
20260502194543 15 306 0.0 6.4 0.00 0.00 0.00 47 1008.9
20260502194059 15 339 0.0 8.0 0.00 0.00 0.00 45 1009.1
20260502193602 15 234 0.0 8.0 0.00 0.00 0.00 44 1009.1
20260502193004 15 283 0.0 11.3 0.00 0.00 0.00 45 1009.2
20260502192520 15 297 0.0 4.8 0.00 0.00 0.00 45 1009.4
20260502192032 15 344 0.0 6.4 0.00 0.00 0.00 45 1009.3
20260502191557 15 252 1.6 9.7 0.00 0.00 0.00 46 1009.5
20260502191053 15 294 1.6 9.7 0.00 0.00 0.00 46 1009.6
20260502190556 15 255 0.0 8.0 0.00 0.00 0.00 47 1009.8
20260502190005 15 333 0.0 8.0 0.00 0.00 0.00 49 1009.8
20260502185520 15 332 0.0 8.0 0.00 0.00 0.00 50 1009.9
20260502185037 15 335 0.0 6.4 0.00 0.00 0.00 49 1009.9
20260502184553 15 308 1.6 8.0 0.00 0.00 0.00 52 1010.0
20260502184052 15 4 1.6 8.0 0.00 0.00 0.00 52 1010.1
20260502183556 14 239 1.6 8.0 0.00 0.00 0.00 54 1010.2
20260502183007 14 251 1.6 6.4 0.00 0.00 0.00 55 1010.2
20260502182523 14 248 0.0 4.8 0.00 0.00 0.00 56 1010.3
20260502182039 14 310 0.0 4.8 0.00 0.00 0.00 57 1010.3
20260502181555 14 265 0.0 6.4 0.00 0.00 0.00 58 1010.4
20260502181056 13 351 1.6 6.4 0.00 0.00 0.00 58 1010.3
20260502180600 13 244 0.0 3.2 0.00 0.00 0.00 59 1010.3